Weather at Buchanan Field

Public forecast

Using degrees Fahrenheit for public forecast. Weather courtesy of forecast.io.

Current aviation weather report (METAR) for Buchanan Field

Retrieved 2022/07/06 02:53 UTC (11 minutes ago):

KCCR 060253Z 22012KT 10SM CLR 21/13 A2992 RMK AO2 SLP119 T02110128 53003

Aviation forecast (TAF) for Buchanan Field

Forecast is more than 12 hours old.

Retrieved 2016/02/08 00:21 UTC (6 years ago):

TAF KCCR 082320Z 0900/0924 06006KT P6SM SKC FM090600 VRB03KT P6SM SKC FM091800 04009KT P6SM SKC